Weather History for KMCN - March, 2012

Change the Weather History Date:

Wednesday, March 7, 2012

  Actual Average Record
Temperature  
Mean Temperature 55 °F 55 °F  
Max Temperature 69 °F 67 °F 84 °F (1956)
Min Temperature 41 °F 42 °F 20 °F (1901)
Degree Days  
Heating Degree Days 10 11  
Month to date heating degree days 61 80  
Since 1 July heating degree days 1738 2005  
Cooling Degree Days 0 0  
Month to date cooling degree days 12 0  
Year to date cooling degree days 20 3  
Growing Degree Days 5 (Base 50)    
Moisture  
Dew Point 48 °F    
Average Humidity 78    
Maximum Humidity 100    
Minimum Humidity 55    
Precipitation  
Precipitation 0.00 in 0.16 in 3.10 in (1958)
Month to date precipitation 0.83 1.11  
Year to date precipitation 6.55 9.71  
Snow  
Snow 0.00 in 0.10 in 0.00 in (2002)
Month to date snowfall 0.0 0.1  
Since 1 July snowfall T 0.6  
Snow Depth -    
Sea Level Pressure  
Sea Level Pressure 30.46 in    
Wind  
Wind Speed 6 mph (ESE)    
Max Wind Speed 17 mph    
Max Gust Speed 23 mph    
Visibility 10 miles    
Events      
T = Trace of Precipitation, MM = Missing Value Source: NWS Daily Summary

Daily Weather History Graph

Daily Weather History Graph

Search for Another Location

Airport or City:

Trip Planner

Search our weather history database for the weather conditions in past years. The results will help you decide how hot, cold, wet, or windy it might be!

Date:

Astronomy

Mar. 07, 2012 Rise Set
Actual Time 6:54 AM EST 6:36 PM EST
Civil Twilight 6:29 AM EST 7:01 PM EST
Nautical Twilight 6:01 AM EST 7:30 PM EST
Astronomical Twilight 5:32 AM EST 7:58 PM EST
Moon 6:10 PM EST (3/7) 6:03 AM EST (3/7)
Length of Visible Light 12h 31m
Length of Day
11h 42m
Waxing Gibbous, 99% of the Moon is Illuminated
Mar 7
Waxing Gibbous
Mar 8
Full
Mar 14
Last Quarter
Mar 22
New
Mar 30
First Quarter

Hourly Weather History & Observations

Time (EST) Temp. Windchill Dew Point Humidity Pressure Visibility Wind Dir Wind Speed Gust Speed Precip Events Conditions
12:53 AM 48.9 °F - 42.1 °F 77% 30.52 in 10.0 mi East 6.9 mph - N/A   Clear
1:53 AM 46.9 °F - 42.1 °F 83% 30.51 in 10.0 mi East 5.8 mph - N/A   Clear
2:53 AM 46.0 °F 43.1 °F 42.1 °F 86% 30.51 in 10.0 mi East 5.8 mph - N/A   Clear
3:53 AM 44.1 °F 40.1 °F 41.0 °F 89% 30.49 in 10.0 mi East 6.9 mph - N/A   Clear
4:53 AM 43.0 °F 40.3 °F 41.0 °F 93% 30.50 in 10.0 mi ENE 4.6 mph - N/A   Clear
5:53 AM 42.1 °F 39.2 °F 41.0 °F 96% 30.50 in 9.0 mi ENE 4.6 mph - N/A   Clear
6:53 AM 43.0 °F 39.5 °F 42.1 °F 97% 30.50 in 10.0 mi NE 5.8 mph - N/A   Clear
7:53 AM 48.0 °F - 46.0 °F 93% 30.51 in 10.0 mi ENE 4.6 mph - N/A   Overcast
8:53 AM 52.0 °F - 48.0 °F 86% 30.51 in 10.0 mi East 5.8 mph - N/A   Overcast
9:53 AM 57.9 °F - 50.0 °F 75% 30.51 in 10.0 mi East 9.2 mph - N/A   Overcast
10:53 AM 63.0 °F - 52.0 °F 67% 30.52 in 10.0 mi SE 5.8 mph - N/A   Overcast
11:53 AM 66.0 °F - 52.0 °F 60% 30.50 in 10.0 mi SE 9.2 mph - N/A   Mostly Cloudy
12:53 PM 64.9 °F - 52.0 °F 63% 30.48 in 10.0 mi SE 9.2 mph - N/A   Overcast
1:53 PM 66.9 °F - 51.1 °F 57% 30.45 in 10.0 mi SE 10.4 mph - N/A   Overcast
2:53 PM 66.9 °F - 51.1 °F 57% 30.43 in 10.0 mi SSE 10.4 mph - N/A   Overcast
3:53 PM 68.0 °F - 51.1 °F 55% 30.41 in 10.0 mi SE 9.2 mph 17.3 mph N/A   Mostly Cloudy
4:53 PM 66.9 °F - 51.1 °F 57% 30.40 in 10.0 mi SSE 6.9 mph - N/A   Overcast
5:53 PM 64.9 °F - 52.0 °F 63% 30.39 in 10.0 mi ESE 6.9 mph - N/A   Overcast
6:53 PM 59.0 °F - 51.1 °F 75% 30.38 in 10.0 mi ESE 6.9 mph - N/A   Partly Cloudy
7:53 PM 62.1 °F - 48.9 °F 62% 30.38 in 10.0 mi Calm Calm - N/A   Clear
8:53 PM 57.0 °F - 48.9 °F 74% 30.38 in 10.0 mi ESE 3.5 mph - N/A   Clear
9:53 PM 55.0 °F - 48.9 °F 80% 30.38 in 10.0 mi ESE 3.5 mph - N/A   Clear
10:53 PM 55.0 °F - 48.9 °F 80% 30.38 in 10.0 mi SSE 5.8 mph - N/A   Clear
11:53 PM 52.0 °F - 48.0 °F 86% 30.38 in 10.0 mi Calm Calm - N/A   Clear